Regional Weather Roundup
Issued by NWS Green Bay, WI

Home | Current Version | Previous Version | Graphics & Text | Print | Product List | Glossary Off
Versions: 1 2 3 4 5 6 7 8 9 10 11 12 13 14 15 16 17 18 19 20 21 22 23 24 25 26 27 28 29 30 31 32 33 34 35 36 37 38 39 40 41 42 43 44 45 46 47 48 49 50

000
ASUS43 KGRB 240011
RWRGRB

NORTH-CENTRAL AND NORTHEAST WISCONSIN REGIONAL WEATHER ROUNDUP
NATIONAL WEATHER SERVICE GREEN BAY WI
700 PM CDT SAT MAY 23 2015

WIZ005-009-010>012-018-019-240100-
NORTH CENTRAL WISCONSIN

CITY           SKY/WX    TMP DP  RH WIND       PRES   REMARKS
IRONWOOD       MOSUNNY   73  36  25 W8        30.10S
MANITOWISH WTR MOSUNNY   70  41  34 SW14G21   30.16S
ARBOR VITAE    PTSUNNY   72  40  31 SW14G21   30.18R
EAGLE RIVER    PTSUNNY   72  32  23 SW10G18   30.16S
LAND O LAKES   PTSUNNY   74  29  19 SW5       30.16F
RHINELANDER    CLOUDY    71  39  31 W9        30.18F
PHILLIPS       CLOUDY    67  38  34 NW3       30.18F
ANTIGO         PTSUNNY   70  43  38 W8        30.18F
TOMAHAWK       CLOUDY    68  36  30 W5        30.19S
MERRILL        PTSUNNY   70  44  39 CALM      30.19S
$$

WIZ013-073-240100-
NORTHEAST WISCONSIN

CITY           SKY/WX    TMP DP  RH WIND       PRES   REMARKS
IRON MOUNTAIN  PTSUNNY   76  31  19 W5        30.13F
MARINETTE      MOSUNNY   73  39  29 SW12      30.14F
OCONTO         MOSUNNY   74  42  31 S6        30.15S
$$

WIZ017-030-035>037-045-240100-
CENTRAL WISCONSIN

CITY           SKY/WX    TMP DP  RH WIND       PRES   REMARKS
MEDFORD        PTSUNNY   69  41  35 SW6       30.18F
WAUSAU         CLOUDY    72  38  29 NW9       30.16F
MOSINEE        CLOUDY    70  43  37 W5        30.18F
MARSHFIELD     PTSUNNY   72  43  35 NW3       30.17F
WISC RAPIDS    CLOUDY    75  36  24 SW6       30.17F
STEVENS POINT  PTSUNNY   72  38  28 CALM      30.17F
WAUPACA        PTSUNNY   76  37  24 S3        30.16F
SHAWANO        CLOUDY    77  37  23 SW6       30.16S
CLINTONVILLE   MOSUNNY   75  34  22 SW8       30.15F
$$

WIZ038-039-048-051-240100-
FOX VALLEY

CITY           SKY/WX    TMP DP  RH WIND       PRES   REMARKS
NWS GREEN BAY  MOSUNNY   77  38  24 S9        30.16F
APPLETON       PTSUNNY   72  37  28 SW6       30.17F
OSHKOSH        MOSUNNY   77  39  25 VRB3      30.16F
FOND DU LAC    MOSUNNY   77  38  24 S7        30.17F
$$

WIZ022-050-052-240100-
EAST CENTRAL WISCONSIN

CITY           SKY/WX    TMP DP  RH WIND       PRES   REMARKS
STURGEON BAY   MOSUNNY   68  37  32 S16       30.20S
MANITOWOC      SUNNY     67  39  35 S13       30.20F
SHEBOYGAN      SUNNY     67  40  37 S8        30.20F
$$

LMZ563-521-522-541>543-240100-
LAKESHORE

STATION/POSITION TIME  TEMP    WIND        PRES    VSBY  WAVE
                       AIR SEA DIR/SP/G                  HT/PER
                 (UTC) (F)     (DEG/KT/KT) (MB)    (MI)  (FT/S)
SHEBOYGAN LKSHOR 0000   58     190/ 15/ 16 1022.9F
KEWAUNEE LKSHORE 2300   51     180/ 11/ 13 1022.2F
NORTHPORT PIER   2300   66     180/  9/ 19 1021.3F
N MID LAKE BUOY  2350   42 36  200/ 12/ 14 1022.3F         2/ 4
CHAMBERS ISLAND  2300   69     150/  6/ 12 1021.3F
MENOMINEE LKSHOR 2300   68     190/ 10/ 15 1021.7F
$$



USA.gov is the U.S. government's official web portal to all federal, state and local government web resources and services.